Regional Weather Roundup
Issued by NWS

Home | Current Version | Previous Version | Graphics & Text | Print | Product List | Glossary Off
Versions: 1 2 3 4 5 6 7 8 9 10 11 12 13 14 15 16 17 18 19 20 21 22 23 24 25 26 27 28 29 30 31 32 33 34 35 36 37 38 39 40 41 42 43 44 45 46 47 48 49 50

000
ASUS43 KMKX 291321
RWRWI

WISCONSIN REGIONAL WEATHER ROUNDUP
NATIONAL WEATHER SERVICE MILWAUKEE/SULLIVAN WI
800 AM CDT SAT AUG 29 2015

NOTE: "FAIR" INDICATES FEW OR NO CLOUDS BELOW 12,000 FEET WITH NO
SIGNIFICANT WEATHER AND/OR OBSTRUCTIONS TO VISIBILITY.

WIZ001-002-006>008-014>016-023>028-291400-
NORTHWEST WISCONSIN

CITY           SKY/WX    TMP DP  RH WIND       PRES   REMARKS
SUPERIOR ARPT  CLOUDY    59  58  94 SW6       30.03R
ASHLAND        MOSUNNY   59  59 100 SW8       30.02R
HAYWARD        MOSUNNY   58  55  90 CALM      30.07R
SIREN          MOSUNNY   57  55  93 CALM      30.07R
CUMBERLAND     PTSUNNY   54  54 100 S7        30.06F FOG
RICE LAKE      CLOUDY    56  55  94 SE6       30.07F
CHETEK         CLOUDY   N/A N/A N/A SE7       30.06F HAZE
LADYSMITH      PTSUNNY   56  55  95 SE6       30.07F
EAU CLAIRE     CLOUDY    57  55  93 E5        30.07S
MENOMONIE      CLOUDY    58  57  96 E5        30.07F FOG
NEW RICHMOND   CLOUDY    55  55  99 SE6       30.07S FOG
OSCEOLA        PTSUNNY   57  57 100 SE5       30.09S
$$

WIZ003>005-009-010-017-018-291400-
NORTH CENTRAL WISCONSIN

CITY           SKY/WX    TMP DP  RH WIND       PRES   REMARKS
MANITOWISH WTR MOSUNNY   58  56  95 S5        30.04S
ARBOR VITAE    MOSUNNY   59  57  92 S7        30.05R
WOODRUFF       MOSUNNY   59  57  92 S7        30.05R
RHINELANDER    FOG       55  54  96 S9        30.07F VSB 1/2
EAGLE RIVER    MOSUNNY   57  56  96 S5        30.05S
LAND O LAKES   PTSUNNY   58  55  88 SW6       30.06R
PHILLIPS       MOSUNNY   56  55  95 S8        30.04R
TOMAHAWK       FOG       55  54  97 CALM      30.06F VSB 1/2
MEDFORD        CLOUDY    56  55  99 SE3       30.07F FOG
MERRILL        CLOUDY    57  56  98 S3        30.08F
$$

WIZ029-030-035-036-043>047-291400-
CENTRAL WISCONSIN

CITY           SKY/WX    TMP DP  RH WIND       PRES   REMARKS
WAUSAU         CLOUDY    59  57  93 E3        30.06F
MOSINEE        CLOUDY    57  57 100 CALM      30.11R
MARSHFIELD     CLOUDY    60  56  86 E7        30.08S FOG
STEVENS POINT  CLOUDY    57  56  98 N5        30.09R FOG
WAUPACA        CLOUDY    61  60  97 N3        30.08S FOG
WAUTOMA        CLOUDY    60  60 100 E6        30.06F
WISC RAPIDS    CLOUDY    60  57  89 NE8       30.09R
CAMP DOUGLAS   CLOUDY    59  59 100 VRB3      30.05R
$$

WIZ011>013-019>022-031-037>040-048>050-291400-
NORTHEAST WISCONSIN

CITY           SKY/WX    TMP DP  RH WIND       PRES   REMARKS
ANTIGO         CLOUDY    57  56  97 S5        30.08F
SHAWANO        CLOUDY    61  59  93 NE6       30.09R
OCONTO         CLOUDY    58  58 100 CALM      30.08S
STURGEON BAY   CLOUDY    59  55  88 SE6       30.10F
GREEN BAY      CLOUDY    61  59  93 E6        30.08S FOG
MANITOWOC      CLOUDY    58  57  97 MISG      30.10S
APPLETON       CLOUDY    59  59 100 VRB6      30.06F FOG
CLINTONVILLE   CLOUDY    59  57  94 NE3       30.09R FOG
OSHKOSH        CLOUDY    60  58  92 E8        30.06F
$$

WIZ032>034-041-042-053>061-291400-
SOUTHWEST WISCONSIN

CITY           SKY/WX    TMP DP  RH WIND       PRES   REMARKS
LA CROSSE      CLOUDY    62  58  86 CALM      30.04S
SPARTA         CLOUDY    60  58  93 NE5       30.06R
VIROQUA        CLOUDY    59  59 100 NE6       30.04S
BOSCOBEL       CLOUDY    63  61  93 CALM      30.01R FOG
PRAIRIE DU CHI CLOUDY    63  61  95 NW5       30.00R
PLATTEVILLE    CLOUDY    64  64 100 CALM      30.00R
$$

WIZ056-057-062-063-064-067-068-291400-
SOUTH CENTRAL WISCONSIN

CITY           SKY/WX    TMP DP  RH WIND       PRES   REMARKS
REEDSBURG      CLOUDY    60  60  99 NE6       30.03R
BARABOO/DELLS  MIX PCPN  60  58  94 E7        30.03S
LONE ROCK      CLOUDY    64  62  93 NE6       30.02R FOG
MINERAL POINT  CLOUDY    64  63  94 SE3       30.00S FOG
MADISON        DRIZZLE   62  61  96 E6        30.02R FOG
MIDDLETON      CLOUDY    64  64 100 E5        30.02R
WATERTOWN      CLOUDY    60  60 100 E6        30.03S
MONROE         TSTM      61  61 100 SE5       30.01R
JANESVILLE     NOT AVBL
$$

WIZ051-052-058>065-066-070>072-291400-
SOUTHEAST WISCONSIN

CITY           SKY/WX    TMP DP  RH WIND       PRES   REMARKS
MILWAUKEE      LGT RAIN  60  59  96 SE3       30.06F FOG
WAUKESHA       DRZL/FOG  57  57 100 E3        30.06F VSB 1
MILWAUKEE/TIMM CLOUDY    57  55  94 CALM      30.06F FOG
RACINE         LGT RAIN  62  59  90 S8        30.08S FOG
BURLINGTON     DRIZZLE   59  59  97 E7        30.04S
KENOSHA        LGT RAIN  62  60  93 E8        30.06F FOG
FOND DU LAC    LGT RAIN  61  59  93 E5        30.06R FOG
SHEBOYGAN      CLOUDY    58  58 100 VRB3      30.08S FOG
WEST BEND      DRIZZLE   59  57  94 E5        30.06S
JUNEAU         DRIZZLE   59  58  97 E8        30.05S
$$

LSZ147-162-291400-
LAKE SUPERIOR

STATION/POSITION TIME  TEMP    WIND        PRES    WAVE
                       AIR SEA DIR/SP/G            HT/PER
                 (UTC) (F)     (DEG/KT/KT) (MB)    (FT/S)
W MID LAKE BUOY  1250   56 54  270/ 10/ 14 1015.4R   3/ 4
DEVILS ISLAND    1300   57     250/ 17/ 19 1016.0R
PORT WING        1240   60     200/  5/  8 1016.6R
SAXON HARBOR     1240   61     290/  2/  7 1015.6R
$$

LMZ867-665-643>646-291400-
LAKE MICHIGAN

STATION/POSITION TIME  TEMP    WIND        PRES    WAVE
                       AIR SEA DIR/SP/G            HT/PER
                 (UTC) (F)     (DEG/KT/KT) (MB)    (FT/S)
CHAMBERS ISLAND  1200   59     150/  3/  5 1018.6F
S GREEN BAY BUOY 1300   60 62  130/  4/  4 1019.9F
N MID LAKE BUOY  1250   61 64  210/ 12/ 14 1018.6S   2/ 4
NORTHPORT PIER   1200   60     150/  4/  7 1018.6F
SISTER BAY       1219   61     190/  7/  9   N/A
ALGOMA LAKESHORE 1214             CALM       N/A
SHEBOYGAN LAKESH 1300   54      90/  5/  6 1018.7F
PORT WASHINGTON  1240   57      40/  3/  8 1018.6F
ATWATER BUOY     1300   52 48  150/  2/  4 1019.0F
MILWAUKEE LAKESH 1200   55      50/  9/  9   N/A
S MID LAKE BUOY  1250   67 68  210/  4/  8 1018.5R   2/ 3
KENOSHA   LAKESH 1300   60     120/  6/  6 1017.9F
$$

TC  - TEMPERATURE IN CELSIUS
VSB - VISIBILITY IN STATUTE MILES
WCI - WIND CHILL INDEX
HX  - HEAT INDEX



USA.gov is the U.S. government's official web portal to all federal, state and local government web resources and services.